Location: Austin
(30.3000°N, 97.7500°W)
Time: 05:53:34
(UTC-05:00)

SL-16 R/B - Pass Details

Date: 16 June 2025
Orbit: 841 x 846 km, 71.0° (Epoch: 07 July)

Event Time Altitude Azimuth Distance (km) Brightness Sun altitude
Rises 00:51:51 0° 321° (NW) 3,399 6.1 -35.5°
Reaches altitude 10° 00:54:52 10° 306° (NW) 2,462 5.1 -35.6°
Enters shadow 00:56:54 17° 287° (WNW) 2,006 4.3 -35.7°
